Location: Hurecourt
(47.9030°N, 6.0653°E)
Time: 10:33:27
(UTC+00:00)

SWAS - Pass Details

Date: 14 July 2020
Orbit: 578 x 593 km, 69.9° (Epoch: 05 August)

Event Time Altitude Azimuth Distance (km) Brightness Sun altitude
Exits shadow 02:41:09 12° 206° (SSW) 1,767 6.3 -9.7°
Maximum altitude 02:45:05 86° 117° (ESE) 596 4.5 -9.2°
Drops below altitude 10° 02:49:25 10° 30° (NNE) 1,929 8.6 -8.8°
Sets 02:51:40 0° 30° (NNE) 2,837 9.8 -8.5°
